星链-3637 (STARLINK-3637 )

导读

STARLINK-3637是美国太空探索技术公司(SpaceX)于2022年2月25日发射的星链(Starlink)卫星,属于星链卫星互联网星座的组成部分。星链项目旨在通过在低地球轨道部署数千颗小型卫星,为全球尤其是基础设施匮乏地区提供高速低延迟的宽带互联网服务,STARLINK-3637承担着覆盖增强与网络扩容的功能。

基本信息
目录编号:
51799
目录名称:
STARLINK-3637
国际标识:
2022-017AH
轨道中心:
EARTH
卫星名称:
星链-3637
卫星全名:
星链-3637 (STARLINK-3637 )
卫星状态:
在轨 (已飞行1660 天)
发射日期:
2022-02-25 UTC
国别 :
美国 (US)
星等 :
--
该卫星已列入 空间交会检测服务 Space Conjunction Data Service (SCDS) ,当前飞行风险评估等级: 无高风险
轨道信息
数据来源 国际轨道数据 AOE轨道数据
星历时间 2026-09-12T10:59:52+0800
5小时前
查看轨道信息
2026-09-09T22:00:00+0800
2天前
查看轨道信息
半长轴 6840.838km 6840.892km
偏心率 0.0001175 0.0003658
轨道倾角 53.159° 53.156°
近地点辐角 90.609° 132.490°
升交点赤经 217.215° 229.093°
平近点角 269.504° 220.620°
近地点 461.897km 460.252km
远地点 463.505km 465.258km
周期 93.848分钟 93.849分钟
每日圈数 15.344008 15.343826
详细信息
固有亮度:
5
最大亮度:
2.5
卫星平台:
Starlink v1.5
覆盖范围:
全球
运营商:
太空探索技术公司
运营商所在国:
美国
制造商(研发单位):
太空探索技术公司
制造商所在国:
美国
使用方式:
暂无
卫星简介
星链(Starlink)计划是由太空探索技术公司(SpaceX)提出的一个巨型低轨卫星互联网星座项目,计划在2019年至2024年间在太空搭建由约1.2万颗卫星组成的“星链”网络,其中1584颗将部署在地球上空550千米处的近地轨道,并从2020年开始工作。该卫星仍在工作。
2D轨道图
3D轨道图
轨道高度分析图
轨道倾角分析图
轨道综合分析图
查看轨道综合分析图
交会数据列表
事件ID 空间交会对象 最接近时刻(TCA) 交会距离 交会风险概率(CRP) 交会风险指数(CRI) 操作
CDM_260914-061305-179906-411021
2026-09-14T
06:13:07+0000
0.509 km
远距离
6.228053E-5 中风险 0.71
CDM_260914-100705-179906-411021
2026-09-14T
10:07:35+0000
1.011 km
极远距离
6.916957E-6 低风险 0.52
CDM_260914-174805-179906-825521
2026-09-14T
17:48:29+0000
1.430 km
极远距离
4.968699E-6 低风险 0.49
CDM_260914-185205-179905-511121
2026-09-14T
18:52:00+0000
2.920 km
极远距离
1.358188E-6 低风险 0.38
CDM_260914-083305-179906-411021
2026-09-14T
08:33:48+0000
1.731 km
极远距离
1.280959E-6 低风险 0.37
CDM_260914-192205-179906-825521
2026-09-14T
19:22:16+0000
2.679 km
极远距离
1.060149E-6 低风险 0.36
CDM_260914-074605-179906-411021
2026-09-14T
07:46:54+0000
2.285 km
极远距离
6.908799E-7 极低风险 0.32
CDM_260912-234005-179905-390921
2026-09-12T
23:40:50+0000
2.541 km
极远距离
6.185703E-7 极低风险 0.31
CDM_260914-043905-179906-411021
2026-09-14T
04:39:19+0000
2.888 km
极远距离
4.943222E-7 极低风险 0.29
与全量物体交会距离演化趋势
与全量物体交会风险概率演化趋势